TCOEI LTBU-LTBU

Flight info

Callsign TCOEI
Flight time 0h 3m
Altitude 3000
Route CRL
Aircraft B738/M-SDE2E3FGHIRWXY/LB1

Departure

Time 2026-04-24 21:07
Airport Tekirdağ Çorlu Airport (LTBU)

Arrival

Time 2026-04-24 21:10
Airport Tekirdağ Çorlu Airport (LTBU)
Time Latitude Longitude Altitude Speed Heading
2026-04-24 20:56 41.13107 27.91243 520 ft 0 kts 150°
2026-04-24 21:03 41.13105 27.91262 520 ft 6 kts 48°
2026-04-24 21:03 41.13147 27.91310 520 ft 8 kts 321°
2026-04-24 21:04 41.13215 27.91276 521 ft 12 kts 324°
2026-04-24 21:04 41.13275 27.91208 521 ft 11 kts 317°
2026-04-24 21:04 41.13323 27.91158 523 ft 9 kts 338°
2026-04-24 21:04 41.13407 27.91249 523 ft 36 kts 48°
2026-04-24 21:05 41.13646 27.91617 548 ft 61 kts 46°
2026-04-24 21:05 41.13949 27.92029 639 ft 59 kts 40°
2026-04-24 21:05 41.14262 27.92412 724 ft 62 kts 41°
2026-04-24 21:05 41.14585 27.92825 786 ft 65 kts 49°
2026-04-24 21:06 41.14781 27.93143 827 ft 71 kts 48°
2026-04-24 21:06 41.15220 27.93873 1031 ft 81 kts 52°
2026-04-24 21:06 41.15347 27.94350 1125 ft 87 kts 95°
2026-04-24 21:06 41.14951 27.94882 1145 ft 88 kts 174°
2026-04-24 21:07 41.14437 27.94568 1179 ft 83 kts 223°
2026-04-24 21:07 41.14014 27.94075 1226 ft 79 kts 221°
2026-04-24 21:07 41.13590 27.93559 1217 ft 83 kts 225°
2026-04-24 21:07 41.13185 27.93059 1268 ft 78 kts 222°
2026-04-24 21:08 41.12757 27.92607 1287 ft 79 kts 217°
2026-04-24 21:08 41.12309 27.92158 1328 ft 77 kts 228°
2026-04-24 21:08 41.11984 27.91678 1330 ft 73 kts 225°
2026-04-24 21:08 41.11635 27.91232 1402 ft 68 kts 225°
2026-04-24 21:09 41.11389 27.90621 1321 ft 84 kts 263°
2026-04-24 21:09 41.11566 27.89892 1290 ft 86 kts 307°
2026-04-24 21:09 41.12154 27.89635 1075 ft 102 kts 12°
2026-04-24 21:09 41.12664 27.90098 739 ft 76 kts 46°
2026-04-24 21:10 41.12982 27.90599 536 ft 62 kts 49°
2026-04-24 21:10 41.13210 27.90951 522 ft 35 kts 51°
2026-04-24 21:10 41.13309 27.91142 523 ft 21 kts 100°
2026-04-24 21:10 41.13215 27.91272 521 ft 17 kts 140°
2026-04-24 21:11 41.13160 27.91271 520 ft 1 kts 144°
2026-04-24 21:11 41.13159 27.91272 520 ft 0 kts 144°